Regional Weather Roundup
Issued by NWS

Home | Current Version | Previous Version | Graphics & Text | Print | Product List | Glossary On
Versions: 1 2 3 4 5 6 7 8 9 10 11 12 13 14 15 16 17 18 19 20 21 22 23 24 25 26 27 28 29 30 31 32 33 34 35 36 37 38 39 40 41 42 43 44 45 46 47 48 49 50
000
ASUS45 KBOU 121810
RWRCO

WEATHER ROUNDUP FOR COLORADO
NATIONAL WEATHER SERVICE DENVER/BOULDER CO
1200 PM MDT SAT JUL 12 2014

NOTE: "FAIR" INDICATES FEW OR NO CLOUDS BELOW 12000 FEET WITH NO
SIGNIFICANT WEATHER AND/OR OBSTRUCTIONS TO VISIBILITY.

COZ001>005-013-030-031-121900-
...NORTHWEST COLORADO...

CITY           SKY/WX    TMP DP  RH WIND       PRES   REMARKS
CRAIG          MOSUNNY   70  56  61 SW3       30.34S
HAYDEN         MOSUNNY   73  54  49 W6        30.35F
MEEKER         SUNNY     81  53  37 SW12      30.32S
MOUNT WERNER   NOT AVBL
STEAMBOAT SPGS MOSUNNY   73  53  49 CALM      30.37S
WALDEN         MOSUNNY   68  52  56 N6        30.46S
$$

COZ006>008-011-121900-
...WEST CENTRAL VALLEYS...

CITY           SKY/WX    TMP DP  RH WIND       PRES   REMARKS
GRAND JUNCTION SUNNY     87  50  27 VRB3      30.19F
MONTROSE       SUNNY     87  47  24 NE6       30.27F
EAGLE          MOSUNNY   75  54  46 CALM      30.35F
RIFLE          MOSUNNY   80  53  39 VRB3      30.25F
DELTA          SUNNY     88  49  26 CALM      30.22F
NUCLA          SUNNY     84  46  26 N5        30.31S
$$

COZ017>023-064>068-121900-
...SOUTHWEST COLORADO...

CITY           SKY/WX    TMP DP  RH WIND       PRES   REMARKS
DURANGO        MOSUNNY   76  51  41 S5        30.34S
CORTEZ         SUNNY     84  52  33 VRB5      30.28F
PAGOSA SPRINGS MOSUNNY   76  51  40 W7        30.41S
TELLURIDE      MOSUNNY   72  46  40 W8G16     30.51S
WOLF CREEK PAS NOT AVBL
$$

COZ009-010-012-014-032>034-037-058>063-121900-
...CENTRAL COLORADO...

CITY           SKY/WX    TMP DP  RH WIND       PRES   REMARKS
ASPEN          MOSUNNY   76  51  41 N8        30.40F
BUENA VISTA    MOSUNNY   81  39  23 NW5       30.38F
COPPER MTN     PTSUNNY   59  41  51 W18       30.75R
BERTHOUD PASS  PTSUNNY   50  34  53 N5        30.79R
COTTONWOOD PAS MOSUNNY   77  37  24 CALM      30.56S
GUNNISON       SUNNY     72  52  49 SW3       30.43F
KREMMLING      MOSUNNY   73  54  49 CALM      30.41S
LEADVILLE      MOSUNNY   69  40  34 W12       30.55S
MONARCH PASS   PTSUNNY   59  43  55 W6        30.83S
SALIDA         MOSUNNY   84  41  22 CALM      30.42F
SUNLIGHT       PTSUNNY   61  54  77 CALM      30.68R
WILKERSON PASS MOSUNNY   61  43  51 CALM      30.71S
$$

COZ069>075-121900-
...SAN LUIS VALLEY/SANGRE DE CRISTO MOUNTAINS...

CITY           SKY/WX    TMP DP  RH WIND       PRES   REMARKS
ALAMOSA        SUNNY     78  48  34 S6        30.39F
LA VETA PASS   SUNNY     68  46  45 W3        30.60R
SAGUACHE       NOT AVBL
$$

COZ035-036-038>040-121900-
...NORTHERN COLORADO FRONT RANGE...

CITY           SKY/WX    TMP DP  RH WIND       PRES   REMARKS
DENVER INTL AP PTSUNNY   73  61  65 VRB3      30.30R
DMNS CITY PARK   N/A     73  60  64 N8        30.30S
AURORA         NOT AVBL
FRONT RANGE AP NOT AVBL
ERIE MUNI ARPT MOSUNNY   75  59  57 CALM      30.28S
BOULDER MUN AP MOSUNNY   73  61  64 NW3       30.30S
CENTENNIAL     PTSUNNY   71  60  68 N13       30.32R
BROOMFIELD     CLOUDY    73  59  60 N7        30.33R
FORT COLLINS   MOSUNNY   79  63  57 N10       30.27S
LONGMONT       MOSUNNY   81  60  48 N5        30.29S
$$

COZ041-046-047-076>085-087-088-121900-
...PIKES PEAK/PALMER DIVIDE AND SOUTHERN FOOTHILLS...

CITY           SKY/WX    TMP DP  RH WIND       PRES   REMARKS
COLO. SPRINGS  MOSUNNY   81  53  37 VRB6      30.29S
A. F. ACADEMY  NOT AVBL
ELLICOTT       SUNNY     79  53  40 CALM      30.28
FALCON         SUNNY     79  50  36 CALM      30.36R
FORT CARSON    NOT AVBL
LIMON          SUNNY     77  61  57 N14       30.26S
MONUMENT HILL  MOSUNNY   77  50  38 NE12      30.35R
TRINIDAD       SUNNY     86  48  26 MISG      30.23F
$$

COZ042>045-048>051-090-091-121900-
...NORTHEAST COLORADO...

CITY           SKY/WX    TMP DP  RH WIND       PRES   REMARKS
GREELEY ARPT   NOT AVBL
AKRON          PTSUNNY   74  63  68 N15       30.24R
BURLINGTON     SUNNY     82  65  56 N16G22    30.17S
WRAY           MOSUNNY   80  65  61 N15       30.17S
STERLING       SUNNY     79  66  65 N13       30.20S
HOLYOKE        PTSUNNY   79  64  61 N13       30.18S
FORT MORGAN    MOSUNNY   80  60  51 NE10G17   30.24R
$$

COZ086-089-092>099-121900-
...SOUTHEAST COLORADO...

CITY           SKY/WX    TMP DP  RH WIND       PRES   REMARKS
PUEBLO         SUNNY     83  57  41 E7        30.17F
LA JUNTA       SUNNY     89  56  32 VRB5      30.15S
LAMAR          SUNNY     91  58  32 VRB7      30.10S
SPRINGFIELD      N/A     91  55  29 VRB3      30.14F
$$


USA.gov is the U.S. government's official web portal to all federal, state and local government web resources and services.